Content
SEND FEEDBACK

Daily
Averages
Monthly
Summary
United States of America

BEDFORD PARK, ILLINOIS


Home > North America > United States > Illinois
Elevation: 623 feet     Latitude: 41 46N     Longitude: 087 45W

WEATHER
 
SELECT A DAY
Number of Records: 189,251;   Date Range: 1/1/95 - 7/22/14
 
SHARE

PRINT THIS DATA

[ ← Previous Day ]
WEATHER ALMANAC - JANUARY 18, 2013
[ Next Day → ]
[ °C ]   °F
Weather ElementAverageHighLow
Temperature32.5 °F41 °F (1:51 pm)21 °F (2:51 am)
Dewpoint21 °F26.1 °F (3:51 pm)14 °F (1:51 am)
Humidity63.3 %78 % (5:51 am)49 % (12:51 pm)
Barometer30.21 in30.47 in (1:51 am)29.96 in (11:51 pm)
Wind Speed14.5 mph26.5 mph (3:51 pm)
Wind Gust36.8 mph (3:51 pm)
Weather ElementAverage
Visibility10 mi
Wind DirectionSSW (202.6 °)

Weather ElementTotal
Precipitation---
Heating Degree Days34 (Base 65)
Averaged from 23 records on January 18, 2013
WEATHER CONDITIONS BREAKOUT
WIND DIRECTION BREAKOUT
WEATHER BY HOUR - JANUARY 18, 2013
[ °C ]   °F
Local TimeTemperatureDewpointHumidityBarometerVisibilityWind DirectionWind SpeedGust SpeedPrecipitationEventsConditions
1:51 AM21.9 °F14.0 °F72 %30.47 in10.0 miWest (260°)5.8 mphScattered Clouds
2:51 AM21.0 °F14.0 °F74 %30.47 in10.0 miWSW (240°)5.8 mphMostly Cloudy
3:51 AM21.9 °F15.1 °F75 %30.46 in10.0 miWSW (250°)4.6 mphOvercast
4:51 AM21.9 °F15.1 °F75 %30.45 in10.0 miSSW (210°)3.5 mphMostly Cloudy
5:51 AM21.0 °F15.1 °F78 %30.43 in10.0 miSouth (170°)6.9 mphMostly Cloudy
6:51 AM23.0 °F15.1 °F72 %30.43 in10.0 miSouth (190°)8.1 mphOvercast
7:51 AM24.1 °F15.1 °F69 %30.40 in10.0 miSouth (180°)6.9 mphOvercast
8:51 AM27.0 °F16.0 °F63 %30.40 in10.0 miSouth (180°)9.2 mphOvercast
9:51 AM30.0 °F17.1 °F59 %30.37 in10.0 miSouth (190°)10.4 mphOvercast
10:51 AM33.1 °F19.9 °F59 %30.32 in10.0 miSSW (200°)17.3 mph26.5 mphOvercast
11:51 AM37.0 °F21.0 °F52 %30.25 in10.0 miSSW (200°)23.0 mph34.5 mphMostly Cloudy
12:51 PM39.9 °F21.9 °F49 %30.18 in10.0 miSSW (210°)20.7 mph35.7 mphScattered Clouds
1:51 PM41.0 °F24.1 °F51 %30.13 in10.0 miSouth (190°)18.4 mph31.1 mphScattered Clouds
2:51 PM41.0 °F25.0 °F53 %30.09 in10.0 miSSW (200°)24.2 mph33.4 mphScattered Clouds
3:51 PM41.0 °F26.1 °F55 %30.04 in10.0 miSouth (190°)26.5 mph36.8 mphScattered Clouds
4:51 PM39.0 °F25.0 °F57 %30.03 in10.0 miSouth (190°)18.4 mph31.1 mphScattered Clouds
5:51 PM37.9 °F26.1 °F62 %30.04 in10.0 miSSW (200°)21.9 mph31.1 mphPartly Cloudy
6:51 PM37.0 °F26.1 °F65 %30.03 in10.0 miSSW (200°)20.7 mph32.2 mphScattered Clouds
7:51 PM37.0 °F26.1 °F65 %30.02 in10.0 miSSW (200°)18.4 mph24.2 mphMostly Cloudy
8:51 PM37.0 °F26.1 °F65 %30.01 in10.0 miSSW (200°)18.4 mph24.2 mphMostly Cloudy
9:51 PM37.0 °F26.1 °F65 %29.99 in10.0 miSSW (200°)13.8 mph20.7 mphClear
10:51 PM37.9 °F26.1 °F62 %29.97 in10.0 miSSW (200°)13.8 mphClear
11:51 PM39.9 °F26.1 °F58 %29.96 in10.0 miSSW (210°)16.1 mph21.9 mphClear
Hourly data recorded from KMDW, located miles away from Bedford Park, Illinois







STORIES FROM OUR PARTNERS